Location: Cherry Springs State Park
(41.6616°N, 77.8240°W)
Time: 22:29:55
(UTC-04:00)

Daily predictions for brighter satellites

Satellite Brightness Start Highest point End
(mag) Time Altitude Azimuth Time Altitude Azimuth Time Altitude Azimuth
Cosmos 1655 Rocket 4.1 20:27:31 10° N 20:33:52 63° E 20:40:08 10° SSE
Cosmos 2242 Rocket 3.6 20:29:57 10° S 20:34:26 85° E 20:38:55 10° N
Cosmos 1862 3.4 20:31:35 10° N 20:35:36 59° E 20:39:35 10° SSE
USA 229 DEB 4.0 20:29:55 10° S 20:36:20 46° ESE 20:42:52 10° NE
USA 229 4.0 20:30:02 10° S 20:36:27 45° ESE 20:42:58 10° NE
Cosmos 2279 Rocket 4.0 20:32:46 10° S 20:38:54 65° E 20:45:04 10° NNE
Cosmos 1408 2.8 20:35:40 10° N 20:39:21 77° W 20:42:58 10° S
Cosmos 2322 Rocket 3.0 20:35:30 10° SW 20:41:01 59° WNW 20:46:36 10° NNE
Cosmos 1825 2.5 20:40:02 10° NNW 20:43:50 70° W 20:47:36 10° S
FALCON 9 R/B 2.2 20:43:46 10° WSW 20:45:52 18° S 20:47:33 10° SE
Cosmos 2360 Rocket 2.2 20:41:46 10° S 20:47:19 62° ESE 20:52:55 10° NNE
Cosmos 1428 Rocket 4.5 20:43:10 10° N 20:49:17 71° E 20:55:22 10° SSE
ATLAS 5 CENTAUR R/B 2.5 20:46:46 10° NW 20:52:49 87° WSW 20:59:24 10° SSE
H-2A R/B 4.1 20:50:38 10° S 20:54:17 41° W 20:57:56 10° NNW
COSMOS 2428 3.4 20:51:46 10° SSE 20:56:46 33° ESE 21:01:48 10° NE
Cosmos 1908 Rocket 3.9 20:53:03 10° N 20:57:13 44° ENE 21:01:23 10° SSE
Resurs 01 Rocket 2.6 20:55:35 10° S 20:59:53 49° W 21:04:14 10° NNW
USA 267 3.4 20:54:16 10° NE 21:00:50 82° NW 21:07:23 10° SW
SJ-11-01 4.5 20:57:45 10° SSE 21:02:17 54° ENE 21:06:50 10° N
BREEZE-M DEB (TANK) 4.1 20:59:08 10° WNW 21:02:18 53° N 21:10:49 10° E
Helios 1A 3.0 20:59:34 10° SSE 21:03:48 77° ENE 21:08:05 10° N
Cosmos 1939 Rocket 3.1 21:01:01 10° SSE 21:04:54 51° ENE 21:08:46 10° N
Atlas Centaur 2 3.5 21:02:16 10° WSW 21:07:40 31° S 21:12:51 14° SE
CZ-4B DEB 2.6 21:06:09 12° SSE 21:08:53 61° ENE 21:11:53 10° N
Cosmos 2322 3.7 21:04:14 10° SSW 21:09:56 81° ESE 21:15:40 10° NNE
Cosmos 1733 Rocket 3.9 21:07:37 10° NNW 21:11:57 52° W 21:16:15 10° S
Cosmos 1782 Rocket 4.2 21:08:01 10° N 21:12:07 38° ENE 21:15:11 16° SE
Abrixas rocket 4.0 21:09:22 10° NW 21:12:13 26° N 21:15:03 10° ENE
Okean 1-7 3.8 21:08:36 11° SSE 21:12:23 32° E 21:16:21 10° NNE
Sich 1 Rocket 3.6 21:08:33 10° N 21:13:03 68° E 21:17:33 10° SSE
SL-16 R/B 4.1 21:08:16 10° WSW 21:13:24 35° WNW 21:18:34 10° N
Cosmos 1606 4.5 21:13:17 14° E 21:13:41 15° E 21:15:49 10° NE
YAOGAN 6 3.3 21:11:36 17° SE 21:13:53 35° ENE 21:17:11 10° N
Cosmos 968 Rocket 3.7 21:20:10 10° NNW 21:25:22 70° WSW 21:30:31 10° S
Cosmos 1844 Rocket 3.0 21:20:50 10° NNW 21:26:15 49° ENE 21:29:48 21° SE
CZ-4C R/B 3.8 21:20:04 10° NNW 21:26:21 34° NE 21:31:55 15° E
Meteor 2-10 Rocket 3.9 21:20:46 10° SSW 21:26:36 82° W 21:32:23 10° N
Cosmos 2237 Rocket 3.5 21:26:55 19° ESE 21:27:50 19° E 21:31:46 10° NE
Meteor 1-14 Rocket 4.2 21:22:32 10° N 21:28:15 74° E 21:33:26 13° SSE
Cosmos 2333 4.3 21:26:43 10° S 21:32:18 58° ESE 21:37:58 10° NNE
Cosmos 2278 Rocket 3.5 21:28:00 10° N 21:32:39 25° NE 21:35:33 17° E
Okean 2 Rocket 3.5 21:28:40 10° N 21:33:02 46° ENE 21:35:19 25° SE
USA 234 3.5 21:30:18 18° ESE 21:35:15 63° NE 21:41:42 10° NW
Cosmos 2333 Rocket 2.9 21:32:00 16° SSE 21:35:44 32° ESE 21:40:47 10° NE
Helios 1B rocket 3.3 21:33:42 10° N 21:37:41 50° WNW 21:41:39 10° SSW
Cosmos 1703 Rocket 3.8 21:40:45 10° SSW 21:45:10 71° W 21:49:35 10° N
Cosmos 1633 4.0 21:45:21 10° NNE 21:48:21 23° ENE 21:48:21 23° ENE
Envisat 3.9 21:43:42 10° S 21:48:34 47° W 21:53:28 10° NNW
Cosmos 2219 Rocket 2.3 21:43:41 10° S 21:49:03 51° ESE 21:54:30 10° NNE
SPOT 5 3.0 21:57:52 36° SE 21:59:28 53° ENE 22:03:54 10° N
SeaSat 1 3.5 21:58:47 26° E 22:00:31 33° NE 22:04:55 10° N
NOSS 0 Rocket 4.1 22:00:22 21° S 22:04:19 49° ESE 22:10:12 10° NE
ERS-1 Rocket 3.1 22:01:58 24° S 22:05:01 70° WSW 22:10:03 10° NNW
H-2A R/B 2.6 22:06:42 34° E 22:07:50 39° ENE 22:12:23 10° N
Cosmos 2151 Rocket 3.8 22:03:32 10° N 22:07:54 52° E 22:08:40 46° ESE
Milstar 3 4.4 22:05:27 10° WSW 22:09:48 16° SSW 22:11:48 14° S
Cosmos 1674 Rocket 4.3 22:15:43 35° ENE 22:15:43 35° ENE 22:19:10 10° NNE
Cosmos 1570 Rocket 3.9 22:11:35 20° SSW 22:15:17 79° ESE 22:20:35 10° NNE
Okean 1 Rocket 4.4 22:13:21 10° NNE 22:16:48 25° ENE 22:16:48 25° ENE
NOSS 3-1 (C) 3.3 22:13:22 10° SW 22:19:08 86° NW 22:25:37 10° NE
MetOp-B 4.2 22:17:12 34° S 22:19:37 77° WSW 22:25:00 10° NNW
Cosmos 1782 3.1 22:18:24 35° SSW 22:19:57 67° W 22:23:57 10° N
Cosmos 1602 4.2 22:17:36 10° N 22:20:56 45° ENE 22:20:56 45° ENE
ASTEX 1 4.0 22:21:11 38° E 22:21:37 39° ENE 22:26:13 10° N
YAOGAN 11 4.2 22:20:57 46° S 22:22:09 71° WSW 22:26:29 10° NNW
Iridium 4 Rocket 4.2 22:21:26 10° NNE 22:24:24 29° ENE 22:24:24 29° ENE
H-2A R/B 3.0 22:27:25 34° ENE 22:27:25 34° ENE 22:31:15 10° N
Cosmos 2208 Rocket 4.0 22:25:08 23° SSW 22:28:35 88° WNW 22:33:55 10° NNE
Cosmos 1346 Rocket 2.9 22:31:35 62° NE 22:31:35 62° NE 22:35:04 10° NNE
Terra 2.6 22:32:31 36° ENE 22:32:37 36° ENE 22:36:59 10° N
Meteor 1-27 Rocket 3.6 22:33:10 50° SSE 22:34:36 71° E 22:40:09 10° NNE
NOSS 3-1 (A) 3.3 22:31:11 10° SW 22:36:57 88° NW 22:43:28 10° NE
ATLAS 2AS CENTAUR R/B 3.9 22:39:31 28° E 22:39:31 28° E 22:44:54 10° NE
COSMOS 2428 4.2 22:35:43 10° SW 22:40:57 37° WNW 22:46:13 10° N
ARGOS 3.4 22:41:15 41° SSW 22:42:57 62° W 22:48:18 10° NNW
Cosmos 1898 Rocket 3.5 22:39:00 10° NNW 22:44:09 61° ENE 22:44:33 59° E
Cosmos 1980 3.6 22:42:14 34° SSW 22:44:47 89° WNW 22:50:28 10° NNE
SL-08 R/B 4.3 22:39:42 10° N 22:45:52 86° E 22:47:23 54° SSE
Cosmos 1300 Rocket 3.6 22:43:39 10° N 22:47:37 68° NE 22:47:37 68° NE
Cosmos 1844 4.3 22:42:51 10° NW 22:48:16 47° WSW 22:49:48 37° SSW
Cosmos 1553 Rocket 3.9 22:46:05 44° S 22:48:17 89° E 22:54:30 10° N
Cosmos 1606 4.1 22:48:19 30° WSW 22:49:09 34° WNW 22:52:37 10° N
Abrixas rocket 4.0 22:46:04 10° WNW 22:47:58 31° NW 22:47:58 31° NW
SL-16 R/B 3.0 22:53:21 35° ENE 22:53:21 35° ENE 22:57:17 10° NE
Cosmos 2084 4.3 22:51:45 10° NW 22:54:45 39° W 22:54:45 39° W
SPOT 1/Viking Rocket 3.8 22:55:00 53° SSW 22:55:55 63° WSW 23:01:06 10° NNW
Atlas Centaur 2 3.9 22:50:48 10° WSW 22:55:28 25° SSW 22:55:28 25° SSW
ATLAS 3B R/B 4.0 22:54:38 10° NNW 23:00:31 29° NE 23:03:13 22° ENE
Meteor 1-11 Rocket 3.8 22:57:39 10° NNW 23:03:09 68° W 23:04:01 58° SW
Cosmos 1814 Rocket 4.3 23:06:52 52° NE 23:06:52 52° NE 23:10:57 10° NNE
Cosmos 1844 Rocket 4.4 23:05:28 10° NW 23:09:45 23° WSW 23:11:29 20° SW
ATLAS CENTAUR R/B 3.4 23:12:45 21° NE 23:12:45 21° NE 23:14:06 10° NE
Cosmos 2237 Rocket 2.6 23:08:37 30° SW 23:11:21 60° WNW 23:17:00 10° NNE
Cosmos 1378 Rocket 4.3 23:13:22 49° NNE 23:13:22 49° NNE 23:16:39 10° N
Meteor 2-11 Rocket 4.5 23:12:02 56° SSW 23:13:19 76° W 23:19:26 10° N
Cosmos 468 Rocket 4.0 23:13:09 76° WSW 23:13:22 78° WNW 23:18:43 10° NNE
CZ-4 R/B 4.5 23:08:38 10° NNE 23:12:15 47° NE 23:12:15 47° NE
Cosmos 883 Rocket 4.3 23:14:58 72° ESE 23:15:08 72° E 23:21:15 10° NNE
CZ-4C R/B 3.0 23:08:16 10° NW 23:15:27 67° WSW 23:17:07 54° S
Cosmos 1386 Rocket 4.4 23:09:57 10° N 23:16:22 87° W 23:17:08 71° S
Cosmos 2278 Rocket 2.6 23:11:33 10° NNW 23:17:01 51° WSW 23:17:25 50° WSW
CZ-4B R/B 4.2 23:13:20 10° NNE 23:16:37 41° NE 23:16:37 41° NE
USA 234 3.9 23:17:39 38° SW 23:18:25 39° SW 23:24:30 10° WNW
Cosmos 2333 Rocket 3.5 23:14:31 10° SW 23:19:52 39° WNW 23:25:16 10° N
S3M 4.5 23:18:41 37° SW 23:20:50 54° WNW 23:26:57 10° N
Timation 1 Rocket 4.5 23:19:30 10° NNW 23:25:24 61° WSW 23:25:37 61° WSW
Cosmos 841 Rocket 4.4 23:28:09 37° NE 23:28:09 37° NE 23:31:26 10° NNE
Cosmos 1536 4.3 23:23:21 10° NNW 23:26:02 36° NW 23:26:02 36° NW
Cosmos 1709 Rocket 3.9 23:21:04 10° N 23:27:28 72° E 23:27:37 71° E
Cosmos 2219 Rocket 4.2 23:28:45 10° WSW 23:33:18 25° NW 23:37:54 10° N
SeaSat 1 3.7 23:38:34 33° W 23:38:34 33° W 23:42:28 10° NW
H-2A R/B 3.6 23:47:20 24° W 23:47:21 24° W 23:51:18 10° NW
